This is the latest recevied weather packets stored in our database for station/object N8XHB. If no packets are shown the sender has not sent any weather packets the latest 10 day(s).
| Time | Temp. | Humidity | Pressure | Rain* | Wind** | Luminosity | Snow |
|---|---|---|---|---|---|---|---|
| 1777669364 | 6.67° C | 52% | 1016.1 hPa | 0 mm | - | 76 W/m² | - |
| 1777669060 | 6.67° C | 52% | 1016.1 hPa | 0 mm | - | 92 W/m² | - |
| 1777668757 | 6.67° C | 52% | 1016 hPa | 0 mm | - | 120 W/m² | - |
| 1777668454 | 6.67° C | 53% | 1016.1 hPa | 0 mm | - | 117 W/m² | - |
| 1777668151 | 6.67° C | 54% | 1016.1 hPa | 0 mm | - | 69 W/m² | - |
| 1777667847 | 6.67° C | 53% | 1016.2 hPa | 0 mm | - | 59 W/m² | - |
| 1777667545 | 6.67° C | 52% | 1016.1 hPa | 0 mm | - | 56 W/m² | - |
| 1777667242 | 6.67° C | 52% | 1016.1 hPa | 0 mm | - | 54 W/m² | - |
| 1777666939 | 6.67° C | 51% | 1016 hPa | 0 mm | - | 62 W/m² | - |
| 1777666635 | 6.67° C | 51% | 1016.1 hPa | 0 mm | - | 69 W/m² | - |
| 1777666332 | 7.22° C | 52% | 1016 hPa | 0 mm | - | 77 W/m² | - |
| 1777666029 | 6.67° C | 53% | 1016 hPa | 0 mm | - | 92 W/m² | - |
| 1777665726 | 6.67° C | 53% | 1016.1 hPa | 0 mm | - | 104 W/m² | - |
| 1777665423 | 6.67° C | 52% | 1016.1 hPa | 0 mm | - | 80 W/m² | - |
| 1777665119 | 6.67° C | 53% | 1015.9 hPa | 0 mm | - | 71 W/m² | - |
| 1777664815 | 6.67° C | 52% | 1016.1 hPa | 0 mm | - | 58 W/m² | - |
| 1777664510 | 6.67° C | 50% | 1015.9 hPa | 0 mm | - | 64 W/m² | - |
| 1777664208 | 6.67° C | 52% | 1015.9 hPa | 0 mm | - | 75 W/m² | - |
| 1777663907 | 6.67° C | 51% | 1015.9 hPa | 0 mm | - | 71 W/m² | - |
| 1777663603 | 7.22° C | 49% | 1015.9 hPa | 0 mm | - | 88 W/m² | - |
| 1777663301 | 7.22° C | 50% | 1015.8 hPa | 0 mm | - | 131 W/m² | - |
| 1777662998 | 7.78° C | 51% | 1015.8 hPa | 0 mm | - | 137 W/m² | - |
| 1777662695 | 7.22° C | 52% | 1015.8 hPa | 0 mm | - | 149 W/m² | - |
| 1777662391 | 7.22° C | 51% | 1015.8 hPa | 0 mm | - | 175 W/m² | - |
| 1777662086 | 7.22° C | 52% | 1015.6 hPa | 0 mm | - | 194 W/m² | - |
* Rain latest hour (hover to see other rain measurements)
** Current wind speed in m/s (hover to see current wind gust speed)